Terug naar catalogus

STARLINK-30820

ActiefCommunicatieVLEO
NORAD 58190·PAYLOAD·🇺🇸 United States

Gelanceerd Oct 30, 2023 vanaf Cape Canaveral Space Force Station

Loading…

Volgende Passages (komende 24 uur)

TLE

VersSource: CelesTrak SupGP

Epoch: Sep 15, 2026, 02:29 UTC

1 58190C 23167R   26258.10395833  .00027396  00000+0  99245-3 0  2583
2 58190  42.9995 153.3371 0001016 273.9578 230.6543 15.27559930    15

Volg STARLINK-30820 in realtime met AllMySat

Download on the App Store